Location: �terpigny
(49.8910°N, 2.9249°E)
Time: 04:57:44
(UTC+00:00)

Cosmos 332 Rocket - Pass Details

Date: 29 May 2022
Orbit: 681 x 703 km, 74.0° (Epoch: 05 July)

Event Time Altitude Azimuth Distance (km) Brightness Sun altitude
Exits shadow 02:28:04 - 261° (W) 2,609 6.3 -10.0°
Reaches altitude 10° 02:29:50 10° 275° (W) 2,127 6.0 -9.8°
Maximum altitude 02:32:51 16° 315° (NW) 1,735 5.9 -9.5°
Drops below altitude 10° 02:35:54 10° 354° (N) 2,136 7.0 -9.2°
Sets 02:39:03 0° 16° (NNE) 3,058 8.5 -8.9°
